Location: Newark
(23.3970°S, 47.6010°W)
Time: 22:10:34
(UTC+00:00)

Vanguard 2 Rocket - Visible Passes

Search period start: 17 February 2020 00:00
Search period end: 27 February 2020 00:00
Orbit: 554 x 3326 km, 32.9° (Epoch: 16 February)

Date Brightness Start Highest point End Pass type
(mag) Time Alt. Az. Time Alt. Az. Time Alt. Az.
17 Feb 10.9 22:48:01 10° WNW 22:54:57 13° NW 23:01:28 10° NNW visible
20 Feb 11.1 22:00:16 10° WNW 22:07:30 13° NW 22:14:31 10° NNW visible
25 Feb 7.7 07:56:10 12° NNW 07:58:55 23° NE 08:02:23 10° E visible
26 Feb 8.5 07:00:13 11° NE 07:00:13 11° NE 07:00:59 10° NE visible
